QPF
0.00 0.00 0.00 0.00 0.00 0.00 0.00 0.00 0.00 0.00 0.00 0.00 0.00 0.00 0.00 0.00 0.00 0.00 0.00 0.00 0.00 0.00 0.00 0.00 0.00 0.00 0.00 0.00 0.00 0.00 0.00 0.00 0.00 0.00 0.00 0.00 0.00 0.00 0.00 0.00 0.01 0.01 0.01 0.02 0.04 0.04 0.04 0.03 0.01
0.00 0.00 0.00 0.00 0.00 0.00 0.00 0.00 0.00 0.00 0.00 0.00 0.00 0.00 0.00 0.00 0.00 0.00 0.00 0.00 0.00 0.00 0.00 0.00 0.00 0.00 0.00 0.00 0.00 0.00 0.00 0.00 0.00 0.00 0.00 0.00 0.00 0.00 0.00 0.00 0.00 0.00 0.00 0.00 0.01 0.02 0.03 0.03 0.02
0.00 0.00 0.00 0.00 0.00 0.00 0.00 0.00 0.00 0.00 0.00 0.00 0.00 0.00 0.00 0.00 0.00 0.00 0.00 0.00 0.00 0.00 0.00 0.00 0.00 0.00 0.00 0.00 0.00 0.00 0.00 0.00 0.00 0.00 0.00 0.01 0.01 0.01 0.01 0.00 0.00 0.00 0.00 0.00 0.00 0.01 0.01 0.02 0.02
0.00 0.00 0.00 0.00 0.00 0.00 0.00 0.00 0.00 0.00 0.00 0.00 0.00 0.00 0.00 0.00 0.00 0.00 0.00 0.00 0.00 0.00 0.00 0.00 0.00 0.00 0.00 0.00 0.00 0.00 0.00 0.00 0.00 0.00 0.01 0.01 0.01 0.00 0.01 0.00 0.00 0.00 0.00 0.00 0.00 0.01 0.01 0.01 0.01
0.00 0.00 0.00 0.00 0.00 0.00 0.00 0.00 0.00 0.00 0.00 0.00 0.00 0.00 0.00 0.00 0.00 0.00 0.00 0.00 0.00 0.00 0.00 0.00 0.00 0.00 0.00 0.00 0.00 0.00 0.00 0.00 0.00 0.00 0.01 0.01 0.00 0.00 0.00 0.00 0.00 0.00 0.00 0.01 0.01 0.00 0.00 0.00 0.00
0.00 0.00 0.00 0.00 0.00 0.00 0.00 0.00 0.00 0.00 0.00 0.00 0.00 0.00 0.00 0.00 0.00 0.00 0.00 0.00 0.00 0.00 0.00 0.00 0.00 0.00 0.00 0.00 0.00 0.00 0.00 0.00 0.00 0.00 0.00 0.00 0.00 0.00 0.00 0.00 0.00 0.00 0.00 0.01 0.01 0.00 0.00 0.00 0.00
0.00 0.00 0.00 0.00 0.00 0.00 0.00 0.00 0.00 0.00 0.00 0.00 0.00 0.00 0.00 0.00 0.00 0.00 0.00 0.00 0.00 0.00 0.00 0.00 0.00 0.00 0.00 0.00 0.00 0.00 0.00 0.00 0.00 0.00 0.00 0.00 0.00 0.00 0.00 0.00 0.00 0.00 0.00 0.01 0.00 0.00 0.00 0.00 0.00
0.00 0.00 0.00 0.00 0.00 0.00 0.00 0.00 0.00 0.00 0.00 0.00 0.00 0.00 0.00 0.00 0.00 0.00 0.00 0.00 0.00 0.00 0.00 0.00 0.00 0.00 0.00 0.00 0.00 0.00 0.00 0.00 0.00 0.00 0.00 0.00 0.00 0.00 0.00 0.00 0.00 0.00 0.00 0.00 0.00 0.00 0.00 0.00 0.00
0.00 0.00 0.00 0.00 0.00 0.00 0.00 0.00 0.00 0.00 0.00 0.00 0.00 0.00 0.00 0.00 0.00 0.00 0.00 0.00 0.00 0.00 0.00 0.00 0.00 0.00 0.00 0.00 0.00 0.00 0.00 0.00 0.00 0.00 0.00 0.00 0.00 0.00 0.00 0.00 0.00 0.00 0.00 0.00 0.00 0.00 0.00 0.00 0.00
0.00 0.00 0.00 0.00 0.00 0.00 0.00 0.00 0.00 0.00 0.00 0.00 0.00 0.00 0.00 0.00 0.00 0.00 0.00 0.00 0.00 0.00 0.00 0.00 0.00 0.00 0.00 0.00 0.00 0.00 0.00 0.00 0.00 0.00 0.00 0.00 0.00 0.00 0.00 0.00 0.00 0.00 0.00 0.00 0.00 0.00 0.00 0.00 0.00
0.00 0.00 0.00 0.00 0.00 0.00 0.00 0.00 0.00 0.00 0.00 0.00 0.00 0.00 0.00 0.00 0.00 0.00 0.00 0.00 0.00 0.00 0.00 0.00 0.00 0.00 0.00 0.00 0.00 0.00 0.00 0.00 0.00 0.00 0.00 0.00 0.00 0.00 0.00 0.00 0.00 0.00 0.00 0.00 0.00 0.00 0.00 0.00 0.00
0.00 0.00 0.00 0.00 0.00 0.00 0.00 0.00 0.00 0.00 0.00 0.00 0.00 0.00 0.00 0.00 0.00 0.00 0.00 0.00 0.00 0.00 0.00 0.00 0.00 0.00 0.00 0.00 0.00 0.00 0.00 0.00 0.00 0.00 0.00 0.00 0.00 0.00 0.00 0.00 0.00 0.00 0.00 0.00 0.00 0.00 0.00 0.00 0.00
0.00 0.00 0.00 0.00 0.00 0.00 0.00 0.00 0.00 0.00 0.00 0.00 0.00 0.00 0.00 0.00 0.00 0.00 0.00 0.00 0.00 0.00 0.00 0.00 0.00 0.00 0.00 0.00 0.00 0.00 0.00 0.00 0.00 0.00 0.00 0.00 0.00 0.00 0.00 0.00 0.00 0.00 0.00 0.00 0.00 0.00 0.00 0.00 0.00
0.00 0.00 0.00 0.00 0.00 0.00 0.00 0.00 0.00 0.00 0.00 0.00 0.00 0.00 0.00 0.00 0.00 0.00 0.00 0.00 0.00 0.00 0.00 0.00 0.00 0.00 0.00 0.00 0.00 0.00 0.00 0.00 0.00 0.00 0.00 0.00 0.00 0.00 0.00 0.00 0.00 0.00 0.00 0.00 0.00 0.00 0.00 0.00 0.00
0.00 0.00 0.00 0.00 0.00 0.00 0.00 0.00 0.00 0.00 0.00 0.00 0.00 0.00 0.00 0.00 0.00 0.00 0.00 0.00 0.00 0.00 0.00 0.00 0.00 0.00 0.00 0.00 0.00 0.00 0.00 0.00 0.00 0.00 0.00 0.00 0.00 0.00 0.00 0.00 0.00 0.00 0.00 0.00 0.00 0.00 0.00 0.00 0.00
0.00 0.00 0.00 0.00 0.00 0.00 0.00 0.00 0.00 0.00 0.00 0.00 0.00 0.00 0.00 0.00 0.00 0.00 0.00 0.00 0.00 0.00 0.00 0.00 0.00 0.00 0.00 0.00 0.00 0.00 0.00 0.00 0.00 0.00 0.00 0.00 0.00 0.00 0.00 0.00 0.00 0.00 0.00 0.00 0.00 0.00 0.00 0.00 0.00
0.00 0.00 0.00 0.00 0.00 0.00 0.00 0.00 0.00 0.00 0.00 0.00 0.00 0.00 0.00 0.00 0.00 0.00 0.00 0.00 0.00 0.00 0.00 0.00 0.00 0.00 0.00 0.00 0.00 0.00 0.00 0.00 0.00 0.00 0.00 0.00 0.00 0.00 0.00 0.00 0.00 0.00 0.00 0.00 0.00 0.00 0.00 0.00 0.00
0.00 0.00 0.00 0.00 0.00 0.00 0.00 0.00 0.00 0.00 0.00 0.00 0.00 0.00 0.00 0.00 0.00 0.00 0.00 0.00 0.00 0.00 0.00 0.00 0.00 0.00 0.00 0.00 0.00 0.00 0.00 0.00 0.00 0.00 0.00 0.00 0.00 0.00 0.00 0.00 0.00 0.00 0.00 0.00 0.00 0.00 0.00 0.00 0.00
0.00 0.00 0.00 0.00 0.00 0.00 0.00 0.00 0.00 0.00 0.00 0.00 0.00 0.00 0.00 0.00 0.00 0.00 0.00 0.00 0.00 0.00 0.00 0.00 0.00 0.00 0.00 0.00 0.00 0.00 0.00 0.00 0.00 0.00 0.00 0.00 0.00 0.00 0.00 0.00 0.00 0.00 0.00 0.00 0.00 0.00 0.00 0.00 0.00
0.00 0.00 0.00 0.00 0.00 0.00 0.00 0.00 0.00 0.00 0.00 0.00 0.00 0.00 0.00 0.00 0.00 0.00 0.00 0.00 0.00 0.00 0.00 0.00 0.00 0.00 0.00 0.00 0.00 0.00 0.00 0.00 0.00 0.00 0.00 0.00 0.00 0.00 0.00 0.00 0.00 0.00 0.00 0.00 0.00 0.00 0.00 0.00 0.00
0.00 0.00 0.00 0.00 0.00 0.00 0.00 0.00 0.00 0.00 0.00 0.00 0.00 0.00 0.00 0.00 0.00 0.00 0.00 0.00 0.00 0.00 0.00 0.00 0.00 0.00 0.00 0.00 0.00 0.00 0.00 0.00 0.00 0.00 0.00 0.00 0.00 0.00 0.00 0.00 0.00 0.00 0.00 0.00 0.00 0.00 0.00 0.00 0.00
0.00 0.00 0.00 0.00 0.00 0.00 0.00 0.00 0.00 0.00 0.00 0.00 0.00 0.00 0.00 0.00 0.00 0.00 0.00 0.00 0.00 0.00 0.00 0.00 0.00 0.00 0.00 0.00 0.00 0.00 0.00 0.00 0.00 0.00 0.00 0.00 0.00 0.00 0.00 0.00 0.00 0.00 0.00 0.00 0.00 0.00 0.00 0.00 0.00
0.00 0.00 0.00 0.00 0.00 0.00 0.00 0.00 0.00 0.00 0.00 0.00 0.00 0.00 0.00 0.00 0.00 0.00 0.00 0.00 0.00 0.00 0.00 0.00 0.00 0.00 0.00 0.00 0.00 0.00 0.00 0.00 0.00 0.00 0.00 0.00 0.00 0.00 0.00 0.00 0.00 0.00 0.00 0.00 0.00 0.00 0.00 0.00 0.00
0.00 0.00 0.00 0.00 0.00 0.00 0.00 0.00 0.00 0.00 0.00 0.00 0.00 0.00 0.00 0.00 0.00 0.00 0.00 0.00 0.00 0.00 0.00 0.00 0.00 0.00 0.00 0.00 0.00 0.00 0.00 0.00 0.00 0.00 0.00 0.00 0.00 0.00 0.00 0.00 0.00 0.00 0.00 0.00 0.00 0.00 0.00 0.00 0.00
0.00 0.00 0.00 0.00 0.00 0.00 0.00 0.00 0.00 0.00 0.00 0.00 0.00 0.00 0.00 0.00 0.00 0.00 0.00 0.00 0.00 0.00 0.00 0.00 0.00 0.00 0.00 0.00 0.00 0.00 0.00 0.00 0.00 0.00 0.00 0.00 0.00 0.00 0.00 0.00 0.00 0.00 0.00 0.00 0.00 0.00 0.00 0.00 0.00
0.00 0.00 0.00 0.00 0.00 0.00 0.00 0.00 0.00 0.00 0.00 0.00 0.00 0.00 0.00 0.00 0.00 0.00 0.00 0.00 0.00 0.00 0.00 0.00 0.00 0.00 0.00 0.00 0.00 0.00 0.00 0.00 0.00 0.00 0.00 0.00 0.00 0.00 0.00 0.00 0.00 0.00 0.00 0.00 0.00 0.00 0.00 0.00 0.00
0.00 0.00 0.00 0.00 0.00 0.00 0.00 0.00 0.00 0.00 0.00 0.00 0.00 0.00 0.00 0.00 0.00 0.00 0.00 0.00 0.00 0.00 0.00 0.00 0.00 0.00 0.00 0.00 0.00 0.00 0.00 0.00 0.00 0.00 0.00 0.00 0.00 0.00 0.00 0.00 0.00 0.00 0.00 0.00 0.00 0.00 0.00 0.00 0.00
0.00 0.00 0.00 0.00 0.00 0.00 0.00 0.00 0.00 0.00 0.00 0.00 0.00 0.00 0.00 0.00 0.00 0.00 0.00 0.00 0.00 0.00 0.00 0.00 0.00 0.00 0.00 0.00 0.00 0.00 0.00 0.00 0.00 0.00 0.00 0.00 0.00 0.00 0.00 0.00 0.00 0.00 0.01 0.01 0.02 0.01 0.01 0.01 0.01
0.00 0.00 0.00 0.00 0.00 0.00 0.00 0.00 0.00 0.00 0.00 0.00 0.00 0.00 0.00 0.00 0.00 0.00 0.00 0.00 0.00 0.00 0.00 0.00 0.00 0.00 0.00 0.00 0.00 0.00 0.00 0.00 0.00 0.00 0.00 0.00 0.00 0.00 0.00 0.00 0.01 0.02 0.03 0.04 0.04 0.03 0.02 0.03 0.03
0.00 0.00 0.00 0.00 0.00 0.00 0.00 0.00 0.00 0.00 0.00 0.00 0.00 0.00 0.00 0.00 0.00 0.00 0.00 0.00 0.00 0.00 0.00 0.00 0.00 0.00 0.00 0.00 0.00 0.00 0.00 0.00 0.00 0.00 0.00 0.00 0.00 0.00 0.00 0.00 0.02 0.05 0.08 0.08 0.07 0.06 0.05 0.06 0.07
MSLP
1013.98 1015.11 1016.79 1018.91 1021.30 1023.75 1026.01 1027.92 1029.36 1030.28 1030.79 1031.03 1031.18 1031.40 1031.79 1032.35 1033.01 1033.64 1034.08 1034.19 1033.91 1033.25 1032.29 1031.18 1030.07 1029.11 1028.36 1027.84 1027.50 1027.25 1027.01 1026.72 1026.33 1025.88 1025.41 1024.96 1024.58 1024.26 1024.00 1023.73 1023.41 1023.00 1022.49 1021.89 1021.23 1020.57 1019.94 1019.36 1018.83
1014.88 1016.41 1018.43 1020.77 1023.25 1025.64 1027.74 1029.39 1030.54 1031.20 1031.52 1031.65 1031.77 1032.03 1032.48 1033.11 1033.81 1034.44 1034.82 1034.86 1034.49 1033.76 1032.76 1031.64 1030.55 1029.63 1028.92 1028.44 1028.11 1027.87 1027.62 1027.32 1026.94 1026.50 1026.05 1025.62 1025.26 1024.95 1024.67 1024.37 1024.01 1023.56 1023.00 1022.37 1021.70 1021.03 1020.39 1019.80 1019.25
1015.97 1017.84 1020.09 1022.56 1025.02 1027.27 1029.13 1030.50 1031.37 1031.80 1031.96 1032.03 1032.17 1032.49 1033.01 1033.70 1034.43 1035.04 1035.37 1035.34 1034.92 1034.16 1033.17 1032.09 1031.07 1030.22 1029.58 1029.13 1028.82 1028.56 1028.29 1027.96 1027.56 1027.11 1026.66 1026.24 1025.88 1025.56 1025.26 1024.92 1024.51 1024.01 1023.42 1022.76 1022.08 1021.42 1020.80 1020.23 1019.69
1017.20 1019.30 1021.70 1024.18 1026.53 1028.57 1030.16 1031.25 1031.87 1032.12 1032.19 1032.25 1032.43 1032.82 1033.42 1034.14 1034.87 1035.44 1035.72 1035.64 1035.20 1034.45 1033.51 1032.52 1031.61 1030.87 1030.30 1029.90 1029.59 1029.32 1029.00 1028.63 1028.19 1027.72 1027.25 1026.83 1026.46 1026.12 1025.79 1025.41 1024.96 1024.41 1023.79 1023.12 1022.44 1021.79 1021.20 1020.66 1020.14
1018.50 1020.75 1023.17 1025.56 1027.73 1029.52 1030.83 1031.67 1032.10 1032.24 1032.28 1032.38 1032.63 1033.10 1033.75 1034.49 1035.19 1035.69 1035.91 1035.78 1035.33 1034.63 1033.79 1032.93 1032.16 1031.53 1031.06 1030.71 1030.40 1030.09 1029.73 1029.30 1028.81 1028.31 1027.83 1027.40 1027.01 1026.66 1026.30 1025.88 1025.39 1024.81 1024.17 1023.49 1022.81 1022.18 1021.62 1021.10 1020.61
1019.84 1022.12 1024.47 1026.69 1028.62 1030.14 1031.20 1031.84 1032.15 1032.26 1032.33 1032.51 1032.86 1033.40 1034.08 1034.79 1035.42 1035.84 1035.98 1035.81 1035.37 1034.73 1034.01 1033.30 1032.69 1032.20 1031.81 1031.50 1031.19 1030.85 1030.43 1029.95 1029.42 1028.89 1028.40 1027.96 1027.58 1027.21 1026.83 1026.39 1025.87 1025.26 1024.59 1023.90 1023.23 1022.62 1022.06 1021.56 1021.09
1021.18 1023.39 1025.58 1027.56 1029.22 1030.48 1031.33 1031.83 1032.08 1032.23 1032.40 1032.69 1033.14 1033.74 1034.43 1035.09 1035.63 1035.94 1035.99 1035.78 1035.36 1034.81 1034.22 1033.67 1033.20 1032.83 1032.52 1032.24 1031.93 1031.55 1031.08 1030.56 1030.01 1029.47 1028.98 1028.55 1028.17 1027.80 1027.40 1026.93 1026.38 1025.76 1025.07 1024.37 1023.70 1023.09 1022.54 1022.04 1021.56
1022.49 1024.56 1026.51 1028.22 1029.60 1030.61 1031.28 1031.70 1031.97 1032.20 1032.50 1032.92 1033.48 1034.12 1034.79 1035.39 1035.82 1036.03 1036.00 1035.76 1035.37 1034.91 1034.44 1034.03 1033.69 1033.42 1033.17 1032.90 1032.57 1032.16 1031.67 1031.12 1030.57 1030.04 1029.57 1029.15 1028.78 1028.40 1027.99 1027.50 1026.92 1026.27 1025.58 1024.87 1024.20 1023.58 1023.03 1022.52 1022.02
1023.75 1025.61 1027.29 1028.70 1029.80 1030.60 1031.14 1031.52 1031.84 1032.19 1032.63 1033.18 1033.82 1034.50 1035.14 1035.66 1035.99 1036.11 1036.02 1035.78 1035.43 1035.06 1034.71 1034.41 1034.18 1033.97 1033.75 1033.48 1033.12 1032.68 1032.17 1031.63 1031.09 1030.59 1030.15 1029.76 1029.39 1029.00 1028.56 1028.04 1027.44 1026.77 1026.06 1025.35 1024.68 1024.06 1023.50 1022.97 1022.44
1024.93 1026.55 1027.94 1029.06 1029.90 1030.51 1030.96 1031.33 1031.72 1032.18 1032.75 1033.41 1034.12 1034.82 1035.42 1035.86 1036.12 1036.17 1036.06 1035.83 1035.55 1035.27 1035.02 1034.82 1034.65 1034.47 1034.25 1033.96 1033.57 1033.11 1032.59 1032.06 1031.56 1031.10 1030.70 1030.33 1029.96 1029.55 1029.08 1028.52 1027.88 1027.19 1026.47 1025.77 1025.11 1024.50 1023.92 1023.37 1022.81
1025.99 1027.36 1028.47 1029.32 1029.94 1030.40 1030.77 1031.16 1031.61 1032.18 1032.85 1033.59 1034.34 1035.02 1035.58 1035.97 1036.17 1036.20 1036.10 1035.92 1035.72 1035.54 1035.38 1035.25 1035.11 1034.93 1034.68 1034.34 1033.92 1033.44 1032.93 1032.43 1031.97 1031.56 1031.19 1030.84 1030.46 1030.02 1029.50 1028.89 1028.21 1027.50 1026.78 1026.09 1025.45 1024.86 1024.28 1023.72 1023.12
1026.90 1028.03 1028.88 1029.50 1029.94 1030.29 1030.63 1031.03 1031.55 1032.19 1032.92 1033.70 1034.45 1035.10 1035.61 1035.96 1036.13 1036.17 1036.12 1036.02 1035.92 1035.83 1035.76 1035.67 1035.54 1035.33 1035.04 1034.65 1034.19 1033.69 1033.19 1032.72 1032.31 1031.95 1031.61 1031.26 1030.86 1030.37 1029.80 1029.14 1028.42 1027.69 1026.98 1026.31 1025.70 1025.12 1024.56 1023.98 1023.34
1027.63 1028.54 1029.19 1029.63 1029.94 1030.22 1030.54 1030.97 1031.53 1032.22 1032.97 1033.75 1034.47 1035.08 1035.54 1035.85 1036.02 1036.10 1036.12 1036.12 1036.12 1036.13 1036.12 1036.06 1035.92 1035.67 1035.32 1034.87 1034.37 1033.86 1033.37 1032.94 1032.57 1032.25 1031.93 1031.57 1031.14 1030.61 1029.98 1029.27 1028.52 1027.78 1027.08 1026.44 1025.85 1025.31 1024.75 1024.15 1023.47
1028.15 1028.88 1029.37 1029.69 1029.93 1030.19 1030.53 1030.99 1031.59 1032.29 1033.04 1033.78 1034.44 1034.99 1035.40 1035.68 1035.86 1035.99 1036.09 1036.19 1036.30 1036.39 1036.43 1036.39 1036.23 1035.94 1035.53 1035.03 1034.50 1033.97 1033.49 1033.09 1032.75 1032.45 1032.14 1031.78 1031.32 1030.74 1030.06 1029.31 1028.54 1027.80 1027.11 1026.50 1025.95 1025.42 1024.87 1024.25 1023.52
1028.45 1029.03 1029.41 1029.67 1029.90 1030.18 1030.56 1031.07 1031.69 1032.40 1033.13 1033.81 1034.41 1034.89 1035.24 1035.51 1035.70 1035.88 1036.05 1036.24 1036.43 1036.59 1036.67 1036.64 1036.46 1036.13 1035.68 1035.14 1034.58 1034.04 1033.57 1033.19 1032.87 1032.58 1032.26 1031.88 1031.39 1030.79 1030.08 1029.31 1028.53 1027.80 1027.14 1026.55 1026.02 1025.50 1024.94 1024.28 1023.50
1028.54 1029.00 1029.32 1029.56 1029.82 1030.15 1030.60 1031.16 1031.83 1032.54 1033.23 1033.86 1034.39 1034.81 1035.12 1035.36 1035.57 1035.78 1036.02 1036.27 1036.52 1036.72 1036.83 1036.80 1036.61 1036.26 1035.78 1035.22 1034.65 1034.11 1033.64 1033.25 1032.93 1032.63 1032.31 1031.91 1031.40 1030.77 1030.06 1029.29 1028.53 1027.82 1027.18 1026.62 1026.10 1025.58 1024.99 1024.28 1023.44
1028.44 1028.81 1029.09 1029.36 1029.67 1030.08 1030.60 1031.23 1031.93 1032.64 1033.31 1033.90 1034.38 1034.75 1035.04 1035.27 1035.49 1035.72 1036.00 1036.29 1036.57 1036.80 1036.92 1036.90 1036.70 1036.34 1035.86 1035.30 1034.73 1034.18 1033.71 1033.31 1032.97 1032.65 1032.29 1031.87 1031.35 1030.72 1030.02 1029.28 1028.55 1027.88 1027.27 1026.72 1026.20 1025.66 1025.04 1024.29 1023.39
1028.20 1028.50 1028.76 1029.06 1029.44 1029.92 1030.52 1031.20 1031.93 1032.65 1033.31 1033.87 1034.32 1034.68 1034.96 1035.20 1035.44 1035.70 1035.99 1036.30 1036.60 1036.83 1036.95 1036.93 1036.74 1036.40 1035.93 1035.40 1034.83 1034.29 1033.80 1033.38 1033.00 1032.64 1032.24 1031.79 1031.25 1030.64 1029.97 1029.27 1028.59 1027.96 1027.38 1026.85 1026.33 1025.77 1025.12 1024.33 1023.39
1027.87 1028.11 1028.37 1028.71 1029.14 1029.68 1030.33 1031.04 1031.78 1032.50 1033.15 1033.71 1034.16 1034.54 1034.84 1035.12 1035.40 1035.69 1036.00 1036.32 1036.60 1036.83 1036.94 1036.92 1036.75 1036.44 1036.01 1035.51 1034.97 1034.44 1033.94 1033.48 1033.04 1032.62 1032.17 1031.68 1031.13 1030.53 1029.90 1029.25 1028.63 1028.04 1027.50 1026.98 1026.45 1025.88 1025.20 1024.39 1023.44
1027.55 1027.75 1028.01 1028.36 1028.82 1029.39 1030.04 1030.75 1031.47 1032.16 1032.79 1033.36 1033.85 1034.28 1034.65 1035.00 1035.34 1035.68 1036.01 1036.33 1036.60 1036.81 1036.91 1036.89 1036.74 1036.47 1036.09 1035.64 1035.14 1034.62 1034.10 1033.60 1033.10 1032.60 1032.09 1031.56 1030.99 1030.39 1029.79 1029.19 1028.61 1028.07 1027.55 1027.05 1026.53 1025.95 1025.27 1024.47 1023.54
1027.31 1027.49 1027.75 1028.11 1028.56 1029.10 1029.71 1030.35 1031.00 1031.64 1032.25 1032.82 1033.36 1033.87 1034.35 1034.80 1035.24 1035.65 1036.02 1036.35 1036.61 1036.79 1036.87 1036.85 1036.72 1036.49 1036.16 1035.76 1035.31 1034.80 1034.28 1033.73 1033.17 1032.60 1032.02 1031.42 1030.82 1030.22 1029.62 1029.05 1028.50 1027.99 1027.49 1027.00 1026.48 1025.92 1025.26 1024.50 1023.63
1027.22 1027.41 1027.68 1028.03 1028.44 1028.91 1029.41 1029.93 1030.46 1031.00 1031.56 1032.14 1032.73 1033.34 1033.95 1034.54 1035.10 1035.60 1036.03 1036.38 1036.63 1036.78 1036.84 1036.81 1036.69 1036.49 1036.21 1035.86 1035.45 1034.97 1034.44 1033.86 1033.25 1032.61 1031.95 1031.29 1030.64 1030.01 1029.40 1028.82 1028.28 1027.76 1027.26 1026.77 1026.26 1025.71 1025.10 1024.41 1023.63
1027.34 1027.56 1027.84 1028.17 1028.53 1028.88 1029.22 1029.57 1029.94 1030.34 1030.82 1031.38 1032.03 1032.74 1033.50 1034.25 1034.95 1035.57 1036.07 1036.45 1036.69 1036.82 1036.84 1036.78 1036.65 1036.46 1036.22 1035.91 1035.53 1035.08 1034.56 1033.97 1033.31 1032.61 1031.89 1031.17 1030.45 1029.76 1029.11 1028.50 1027.92 1027.37 1026.84 1026.33 1025.81 1025.28 1024.72 1024.12 1023.45
1027.65 1027.93 1028.25 1028.56 1028.83 1029.05 1029.21 1029.36 1029.52 1029.77 1030.14 1030.67 1031.35 1032.16 1033.06 1033.97 1034.83 1035.57 1036.16 1036.56 1036.80 1036.89 1036.87 1036.76 1036.60 1036.40 1036.17 1035.89 1035.55 1035.13 1034.62 1034.03 1033.35 1032.61 1031.84 1031.05 1030.27 1029.51 1028.78 1028.09 1027.44 1026.82 1026.23 1025.67 1025.13 1024.61 1024.10 1023.58 1023.03
1028.11 1028.48 1028.84 1029.14 1029.33 1029.40 1029.38 1029.31 1029.27 1029.34 1029.59 1030.07 1030.77 1031.67 1032.70 1033.76 1034.76 1035.63 1036.30 1036.74 1036.98 1037.03 1036.94 1036.77 1036.56 1036.32 1036.07 1035.80 1035.48 1035.09 1034.61 1034.03 1033.35 1032.60 1031.78 1030.94 1030.09 1029.24 1028.42 1027.63 1026.88 1026.16 1025.48 1024.85 1024.27 1023.74 1023.26 1022.80 1022.35
1028.64 1029.10 1029.51 1029.80 1029.93 1029.87 1029.68 1029.41 1029.18 1029.08 1029.22 1029.64 1030.35 1031.32 1032.45 1033.64 1034.78 1035.75 1036.49 1036.97 1037.20 1037.20 1037.06 1036.81 1036.52 1036.23 1035.95 1035.66 1035.35 1034.98 1034.52 1033.97 1033.31 1032.56 1031.72 1030.84 1029.92 1028.99 1028.07 1027.17 1026.29 1025.45 1024.67 1023.95 1023.31 1022.75 1022.28 1021.87 1021.49
1029.14 1029.68 1030.13 1030.42 1030.49 1030.33 1030.00 1029.58 1029.19 1028.96 1029.00 1029.37 1030.09 1031.10 1032.31 1033.61 1034.85 1035.91 1036.72 1037.22 1037.44 1037.41 1037.20 1036.87 1036.51 1036.15 1035.82 1035.50 1035.18 1034.82 1034.39 1033.86 1033.22 1032.48 1031.65 1030.74 1029.77 1028.77 1027.76 1026.74 1025.75 1024.79 1023.90 1023.08 1022.37 1021.77 1021.28 1020.89 1020.55
1029.52 1030.10 1030.57 1030.85 1030.88 1030.65 1030.22 1029.69 1029.20 1028.89 1028.87 1029.21 1029.93 1030.98 1032.25 1033.61 1034.93 1036.06 1036.91 1037.45 1037.66 1037.60 1037.34 1036.95 1036.52 1036.09 1035.70 1035.34 1034.99 1034.63 1034.21 1033.71 1033.10 1032.38 1031.55 1030.64 1029.64 1028.59 1027.51 1026.40 1025.31 1024.26 1023.27 1022.37 1021.60 1020.95 1020.43 1020.02 1019.69
1029.70 1030.27 1030.73 1030.97 1030.96 1030.68 1030.21 1029.64 1029.11 1028.78 1028.75 1029.09 1029.82 1030.89 1032.20 1033.60 1034.96 1036.13 1037.02 1037.58 1037.80 1037.73 1037.45 1037.02 1036.54 1036.06 1035.61 1035.21 1034.83 1034.45 1034.03 1033.54 1032.95 1032.25 1031.45 1030.54 1029.54 1028.47 1027.34 1026.19 1025.05 1023.93 1022.88 1021.93 1021.10 1020.41 1019.86 1019.43 1019.08
1029.68 1030.18 1030.56 1030.74 1030.67 1030.37 1029.90 1029.34 1028.85 1028.55 1028.56 1028.93 1029.69 1030.78 1032.10 1033.52 1034.89 1036.08 1036.98 1037.56 1037.81 1037.76 1037.48 1037.05 1036.55 1036.04 1035.56 1035.12 1034.71 1034.31 1033.87 1033.38 1032.80 1032.12 1031.34 1030.45 1029.46 1028.40 1027.28 1026.13 1024.97 1023.84 1022.78 1021.81 1020.95 1020.24 1019.66 1019.19 1018.80
Thickness
5743 5745 5744 5731 5701 5662 5631 5628 5632 5625 5620 5617 5616 5614 5606 5600 5597 5582 5584 5586 5589 5593 5599 5605 5610 5613 5616 5618 5620 5622 5624 5626 5628 5629 5631 5632 5633 5635 5636 5637 5640 5643 5647 5651 5656 5661 5667 5673 5678
5743 5744 5731 5707 5674 5639 5626 5625 5626 5624 5620 5616 5614 5609 5604 5599 5594 5589 5584 5584 5585 5589 5595 5600 5604 5607 5610 5611 5613 5615 5616 5617 5619 5620 5621 5622 5622 5623 5625 5626 5628 5631 5634 5638 5642 5646 5652 5657 5664
5743 5736 5705 5676 5641 5628 5624 5622 5621 5620 5619 5617 5610 5602 5594 5591 5589 5584 5580 5581 5583 5587 5591 5594 5598 5600 5602 5603 5604 5605 5606 5607 5607 5608 5609 5609 5609 5610 5612 5613 5615 5618 5621 5625 5629 5633 5637 5642 5648
5737 5715 5686 5653 5625 5619 5622 5623 5623 5621 5619 5614 5606 5591 5584 5581 5581 5578 5577 5578 5581 5584 5586 5588 5590 5591 5592 5593 5593 5593 5594 5594 5595 5595 5595 5594 5593 5594 5596 5597 5599 5603 5606 5610 5614 5618 5623 5627 5633
5727 5699 5662 5631 5620 5620 5620 5622 5624 5621 5613 5606 5599 5583 5578 5576 5575 5574 5574 5575 5578 5579 5579 5579 5581 5581 5582 5582 5581 5581 5580 5580 5580 5579 5579 5577 5576 5577 5578 5579 5581 5584 5588 5592 5597 5601 5606 5612 5618
5708 5687 5650 5623 5620 5620 5620 5620 5618 5613 5609 5603 5593 5580 5575 5574 5573 5571 5571 5572 5572 5572 5571 5571 5571 5571 5571 5570 5569 5568 5567 5566 5564 5562 5560 5558 5556 5556 5557 5557 5560 5563 5566 5571 5575 5581 5587 5594 5600
5697 5670 5640 5627 5623 5622 5621 5619 5613 5608 5605 5601 5594 5578 5575 5574 5571 5569 5568 5567 5566 5565 5564 5563 5562 5561 5560 5559 5557 5554 5552 5550 5547 5544 5541 5538 5535 5534 5534 5534 5536 5539 5541 5545 5550 5556 5564 5572 5578
5700 5675 5643 5634 5629 5624 5622 5617 5609 5606 5601 5596 5593 5578 5573 5573 5569 5566 5563 5562 5561 5558 5555 5552 5551 5549 5547 5545 5542 5538 5536 5533 5530 5525 5521 5517 5513 5511 5510 5509 5511 5513 5515 5518 5522 5529 5537 5545 5554
5703 5670 5646 5642 5636 5626 5624 5616 5606 5601 5596 5591 5587 5583 5579 5573 5567 5562 5559 5557 5555 5551 5547 5542 5540 5538 5536 5533 5528 5523 5520 5516 5511 5506 5502 5496 5491 5486 5484 5482 5483 5484 5485 5488 5492 5498 5507 5516 5525
5688 5658 5650 5649 5642 5633 5627 5618 5607 5601 5592 5585 5581 5578 5574 5568 5562 5557 5555 5550 5546 5542 5538 5534 5531 5528 5524 5520 5516 5510 5504 5498 5491 5484 5477 5470 5464 5458 5454 5451 5450 5450 5452 5454 5458 5465 5473 5483 5494
5670 5653 5648 5644 5640 5634 5626 5616 5610 5601 5594 5585 5580 5575 5570 5564 5558 5553 5547 5541 5536 5532 5529 5526 5521 5517 5512 5506 5501 5493 5486 5478 5469 5460 5451 5442 5435 5428 5423 5420 5417 5415 5416 5418 5422 5429 5437 5447 5459
5660 5649 5647 5642 5638 5631 5621 5614 5606 5603 5600 5592 5582 5575 5568 5560 5553 5546 5540 5534 5528 5524 5520 5516 5510 5504 5497 5490 5483 5475 5466 5457 5448 5438 5427 5417 5408 5400 5394 5389 5386 5384 5383 5384 5387 5393 5402 5411 5423
5655 5645 5637 5632 5629 5622 5615 5607 5602 5595 5589 5584 5577 5570 5562 5553 5546 5540 5534 5528 5522 5517 5511 5505 5498 5491 5483 5475 5465 5455 5445 5434 5423 5412 5401 5391 5381 5374 5367 5362 5359 5356 5354 5355 5359 5363 5370 5378 5390
5645 5638 5633 5629 5625 5620 5610 5603 5599 5591 5584 5578 5571 5563 5556 5549 5542 5535 5528 5521 5515 5508 5500 5494 5486 5477 5467 5457 5446 5435 5424 5412 5399 5387 5375 5364 5355 5347 5342 5338 5335 5332 5329 5330 5332 5337 5343 5350 5360
5645 5636 5630 5626 5621 5614 5610 5605 5600 5590 5580 5573 5566 5559 5552 5545 5538 5530 5522 5513 5506 5498 5489 5481 5473 5461 5451 5440 5428 5416 5404 5391 5377 5364 5352 5341 5332 5325 5318 5314 5311 5308 5307 5307 5309 5313 5318 5326 5335
5643 5634 5629 5624 5618 5612 5609 5612 5604 5586 5577 5568 5560 5553 5547 5540 5531 5523 5514 5506 5498 5487 5476 5467 5458 5447 5435 5423 5410 5396 5383 5369 5355 5342 5331 5321 5312 5305 5299 5294 5291 5288 5287 5287 5288 5292 5295 5301 5310
5639 5634 5631 5622 5616 5611 5607 5609 5602 5583 5577 5565 5556 5548 5542 5534 5526 5517 5508 5499 5488 5475 5464 5454 5444 5433 5420 5407 5393 5378 5363 5349 5336 5324 5313 5304 5295 5287 5281 5278 5275 5273 5272 5271 5272 5274 5275 5281 5288
5644 5635 5632 5625 5617 5610 5605 5604 5598 5581 5575 5563 5553 5544 5537 5530 5522 5512 5501 5490 5477 5464 5453 5442 5431 5419 5406 5393 5378 5362 5346 5332 5319 5307 5297 5287 5278 5271 5266 5264 5261 5259 5258 5257 5257 5257 5259 5262 5267
5650 5639 5634 5630 5621 5612 5605 5603 5595 5581 5571 5559 5548 5541 5534 5527 5518 5506 5493 5480 5467 5454 5442 5430 5418 5406 5393 5378 5363 5349 5335 5321 5307 5293 5281 5271 5263 5256 5252 5249 5246 5244 5242 5241 5240 5241 5244 5246 5249
5645 5640 5635 5628 5621 5615 5606 5600 5593 5579 5571 5561 5550 5541 5532 5521 5510 5498 5486 5471 5456 5443 5430 5419 5406 5392 5376 5360 5344 5329 5317 5305 5292 5278 5266 5255 5246 5241 5237 5233 5230 5227 5226 5224 5222 5222 5226 5230 5229
5646 5643 5638 5630 5617 5607 5607 5609 5593 5582 5573 5563 5551 5541 5528 5517 5504 5491 5478 5464 5448 5434 5420 5408 5392 5377 5361 5344 5329 5317 5307 5293 5280 5269 5256 5243 5233 5226 5221 5217 5212 5209 5206 5204 5203 5203 5205 5210 5213
5646 5645 5638 5627 5613 5603 5603 5597 5605 5577 5567 5559 5547 5533 5521 5512 5497 5484 5471 5457 5441 5425 5410 5395 5379 5363 5346 5330 5315 5301 5290 5278 5265 5253 5242 5231 5221 5213 5206 5199 5193 5187 5182 5180 5178 5181 5182 5187 5195
5644 5641 5633 5621 5612 5601 5592 5584 5596 5569 5562 5557 5543 5528 5515 5503 5491 5479 5465 5449 5433 5415 5398 5383 5367 5350 5333 5317 5302 5288 5274 5261 5250 5239 5229 5220 5211 5201 5191 5181 5171 5162 5156 5153 5152 5154 5159 5165 5173
5640 5632 5620 5607 5598 5597 5595 5581 5591 5566 5564 5562 5546 5527 5512 5498 5485 5472 5457 5440 5422 5404 5388 5372 5356 5339 5323 5307 5292 5277 5264 5251 5240 5229 5219 5210 5200 5188 5174 5159 5146 5135 5128 5124 5124 5128 5134 5143 5153
5634 5625 5613 5612 5602 5599 5590 5584 5590 5589 5567 5559 5544 5525 5508 5493 5478 5464 5449 5430 5412 5395 5380 5363 5347 5330 5314 5298 5283 5269 5255 5240 5227 5215 5205 5195 5185 5171 5155 5138 5124 5112 5105 5100 5100 5104 5112 5123 5136
5629 5626 5610 5601 5591 5588 5586 5582 5593 5579 5562 5551 5539 5521 5502 5487 5472 5458 5440 5421 5403 5389 5372 5354 5338 5321 5306 5290 5276 5262 5247 5232 5217 5204 5191 5179 5166 5150 5134 5120 5108 5099 5093 5088 5086 5088 5096 5109 5123
5627 5609 5607 5589 5582 5574 5580 5584 5588 5567 5556 5541 5526 5510 5497 5482 5467 5450 5431 5413 5396 5380 5363 5346 5330 5313 5298 5283 5270 5256 5241 5226 5211 5197 5183 5169 5152 5136 5121 5108 5102 5097 5092 5088 5084 5084 5090 5101 5115
5623 5606 5591 5587 5584 5575 5580 5579 5586 5586 5558 5539 5521 5506 5492 5477 5459 5442 5423 5406 5390 5372 5355 5338 5322 5305 5290 5276 5262 5250 5235 5220 5206 5192 5178 5162 5145 5128 5114 5106 5103 5100 5098 5094 5091 5090 5094 5102 5115
5618 5608 5594 5576 5576 5570 5563 5588 5598 5589 5570 5546 5529 5508 5490 5472 5453 5435 5417 5401 5383 5366 5349 5332 5316 5300 5285 5272 5258 5244 5231 5216 5202 5188 5173 5158 5141 5124 5112 5106 5104 5104 5104 5102 5100 5100 5103 5109 5119
5624 5614 5596 5593 5582 5560 5551 5586 5600 5582 5566 5547 5528 5506 5487 5468 5448 5430 5413 5396 5377 5360 5343 5327 5311 5296 5282 5268 5255 5241 5227 5213 5199 5186 5172 5157 5140 5124 5112 5106 5105 5106 5107 5108 5108 5109 5112 5117 5124